Retour au catalogue

FALCON 9 R/B

ActifHEO
NORAD 44869·ROCKET BODY·🇺🇸 United States

Lancé Dec 17, 2019 depuis Cape Canaveral Space Force Station

Loading…

Prochains Passages (prochaines 24 heures)

TLE

FraisSource: Space-Track

Époque: Sep 13, 2026, 20:10 UTC

1 44869U 19091B   26256.84042575  .00002273  00000-0  62313-3 0  9999
2 44869  26.9096 133.1204 5801196 183.7166 168.6985  4.31921221102923

Suivez FALCON 9 R/B en temps réel avec AllMySat

Download on the App Store